PAL1806 RPMD-RPLL

Flight info

Callsign PAL1806
Flight time N/A
Altitude 36000
Route ANKIN3R ANKIN B473 LAIYA LAIYA3R
Aircraft B77W/H-SDE1E2E3FGHIJ2J3J4J5M1RWXY/LB1D1

Departure

Time 2026-04-30 10:05
Airport Francisco Bangoy International Airport (RPMD)

Arrival

Time N/A
Airport Ninoy Aquino International Airport (RPLL)
Time Latitude Longitude Altitude Speed Heading
2026-04-30 09:01 7.12979 125.64610 123 ft 0 kts 319°
2026-04-30 09:50 7.12972 125.64616 128 ft 2 kts 318°
2026-04-30 09:50 7.12961 125.64626 128 ft 2 kts 318°
2026-04-30 09:50 7.12950 125.64636 128 ft 2 kts 319°
2026-04-30 09:51 7.12943 125.64642 128 ft 2 kts 316°
2026-04-30 09:51 7.12935 125.64654 128 ft 2 kts 286°
2026-04-30 09:51 7.12933 125.64669 128 ft 2 kts 261°
2026-04-30 09:51 7.12937 125.64683 128 ft 2 kts 237°
2026-04-30 09:52 7.12942 125.64689 128 ft 1 kts 228°
2026-04-30 09:52 7.12943 125.64690 128 ft 0 kts 228°
2026-04-30 09:55 7.12942 125.64688 128 ft 0 kts 228°
2026-04-30 09:55 7.12930 125.64675 128 ft 4 kts 230°
2026-04-30 09:56 7.12904 125.64643 128 ft 6 kts 230°
2026-04-30 09:56 7.12868 125.64601 128 ft 9 kts 229°
2026-04-30 09:56 7.12822 125.64548 128 ft 10 kts 229°
2026-04-30 09:56 7.12774 125.64493 128 ft 10 kts 229°
2026-04-30 09:57 7.12737 125.64451 128 ft 6 kts 218°
2026-04-30 09:57 7.12697 125.64448 128 ft 5 kts 150°
2026-04-30 09:57 7.12663 125.64476 128 ft 6 kts 139°
2026-04-30 09:57 7.12628 125.64507 128 ft 6 kts 139°
2026-04-30 09:58 7.12591 125.64539 128 ft 7 kts 139°
2026-04-30 09:58 7.12563 125.64562 129 ft 5 kts 152°
2026-04-30 09:58 7.12531 125.64563 129 ft 3 kts 212°
2026-04-30 09:58 7.12512 125.64535 129 ft 6 kts 236°
2026-04-30 09:59 7.12404 125.64407 128 ft 13 kts 229°
2026-04-30 09:59 7.12285 125.64269 129 ft 13 kts 230°
2026-04-30 10:00 7.12161 125.64125 129 ft 13 kts 229°
2026-04-30 10:00 7.12103 125.64057 129 ft 12 kts 229°
2026-04-30 10:01 7.11989 125.63925 129 ft 12 kts 229°
2026-04-30 10:01 7.11934 125.63861 129 ft 11 kts 229°
2026-04-30 10:01 7.11880 125.63799 129 ft 11 kts 229°
2026-04-30 10:02 7.11775 125.63676 129 ft 11 kts 230°
2026-04-30 10:02 7.11754 125.63626 129 ft 8 kts 273°
2026-04-30 10:02 7.11755 125.63570 129 ft 7 kts 255°
2026-04-30 10:02 7.11716 125.63540 129 ft 7 kts 178°
2026-04-30 10:03 7.11695 125.63570 129 ft 6 kts 76°
2026-04-30 10:03 7.11713 125.63600 129 ft 3 kts 52°
2026-04-30 10:03 7.11716 125.63603 129 ft 0 kts 52°
2026-04-30 10:04 7.11745 125.63638 129 ft 20 kts 49°
2026-04-30 10:04 7.12008 125.63946 129 ft 97 kts 49°
2026-04-30 10:04 7.12616 125.64655 134 ft 165 kts 51°
2026-04-30 10:05 7.13399 125.65577 662 ft 181 kts 51°
2026-04-30 10:05 7.14274 125.66511 1528 ft 186 kts 40°
2026-04-30 10:05 7.15452 125.67091 2074 ft 199 kts 13°
2026-04-30 10:05 7.16890 125.67091 2533 ft 217 kts 353°
2026-04-30 10:06 7.18450 125.66851 3056 ft 233 kts 352°
2026-04-30 10:06 7.20113 125.66585 3626 ft 248 kts 352°
2026-04-30 10:06 7.21859 125.66305 4229 ft 263 kts 352°
2026-04-30 10:06 7.23703 125.66009 4891 ft 275 kts 352°
2026-04-30 10:07 7.25607 125.65704 5768 ft 278 kts 352°
2026-04-30 10:07 7.27537 125.65379 6580 ft 282 kts 348°
2026-04-30 10:07 7.29311 125.64545 7246 ft 290 kts 323°
2026-04-30 10:07 7.30805 125.63171 7955 ft 295 kts 317°
2026-04-30 10:08 7.32291 125.61701 8665 ft 299 kts 316°
2026-04-30 10:08 7.33772 125.60229 9512 ft 301 kts 316°
2026-04-30 10:08 7.35267 125.58742 10466 ft 303 kts 316°
2026-04-30 10:08 7.36780 125.57237 11161 ft 318 kts 316°
2026-04-30 10:09 7.38396 125.55631 11901 ft 333 kts 315°
2026-04-30 10:09 7.40089 125.53948 12444 ft 349 kts 315°
2026-04-30 10:09 7.41864 125.52183 12812 ft 368 kts 316°
2026-04-30 10:09 7.43718 125.50338 13196 ft 386 kts 316°
2026-04-30 10:10 7.45663 125.48405 13745 ft 399 kts 317°
2026-04-30 10:10 7.47667 125.46411 14570 ft 406 kts 317°
2026-04-30 10:10 7.49677 125.44411 15518 ft 411 kts 317°
2026-04-30 10:10 7.51726 125.42373 16448 ft 416 kts 317°
2026-04-30 10:11 7.53809 125.40300 17299 ft 423 kts 317°
2026-04-30 10:11 7.55895 125.38223 18136 ft 429 kts 317°
2026-04-30 10:11 7.58035 125.36093 18987 ft 434 kts 317°
2026-04-30 10:11 7.60207 125.33931 19822 ft 439 kts 317°
2026-04-30 10:12 7.62376 125.31770 20597 ft 445 kts 317°
2026-04-30 10:12 7.64588 125.29566 21358 ft 450 kts 316°
2026-04-30 10:12 7.66832 125.27331 22092 ft 456 kts 316°
2026-04-30 10:12 7.69126 125.25044 22859 ft 461 kts 316°
2026-04-30 10:13 7.71410 125.22767 23607 ft 465 kts 316°
2026-04-30 10:13 7.73732 125.20452 24380 ft 469 kts 316°
2026-04-30 10:13 7.76037 125.18153 25123 ft 474 kts 316°
2026-04-30 10:13 7.78400 125.15797 25836 ft 479 kts 316°
2026-04-30 10:14 7.80790 125.13412 26532 ft 484 kts 316°
2026-04-30 10:14 7.83199 125.11008 27272 ft 488 kts 316°
2026-04-30 10:14 7.88063 125.06153 28679 ft 497 kts 316°
2026-04-30 10:15 7.90556 125.03664 29394 ft 501 kts 316°
2026-04-30 10:15 7.93003 125.01220 30291 ft 500 kts 316°
2026-04-30 10:15 7.95462 124.98762 31386 ft 493 kts 316°
2026-04-30 10:15 7.97967 124.96454 32461 ft 484 kts 322°
2026-04-30 10:16 8.00592 124.94299 33418 ft 481 kts 323°
2026-04-30 10:16 8.03208 124.92175 34225 ft 480 kts 323°
2026-04-30 10:16 8.05821 124.90052 34987 ft 480 kts 323°
2026-04-30 10:17 8.10904 124.85920 36058 ft 483 kts 322°